RH
63 65 65 68 68 68 64 63 64 69 64 65 70 58 54 59 62 65 80 67 57 61 58 45 56 66 65 60 47 56 85 86 74 59 38 24 26 23 23 21 21 21 45 62 67
66 66 68 65 69 68 67 64 65 66 68 64 66 72 52 59 59 59 51 66 61 55 54 49 70 71 66 58 53 55 77 70 54 49 41 26 25 26 26 25 24 26 44 61 70
64 66 68 65 68 66 63 58 64 63 66 62 71 66 54 54 60 47 46 63 68 55 52 40 52 64 73 54 52 52 60 52 62 47 35 29 28 28 26 31 23 23 42 55 72
68 69 70 68 66 66 62 62 63 62 64 62 63 67 58 52 73 52 41 59 71 50 54 58 45 72 73 64 45 48 44 37 34 34 32 33 26 26 26 28 22 24 31 55 64
66 69 68 72 67 67 68 71 67 63 65 63 64 72 59 62 53 43 49 55 59 65 55 68 49 64 72 56 44 50 39 31 29 38 38 30 30 28 29 27 26 27 28 35 40
65 68 69 71 67 63 68 72 69 62 60 58 59 60 60 70 29 42 59 64 66 72 52 56 44 47 56 49 48 41 40 36 31 40 39 36 31 32 30 27 28 28 31 29 28
70 65 70 73 63 63 65 64 70 69 61 58 60 55 62 53 35 55 58 60 63 70 56 47 38 45 55 59 41 39 50 42 38 41 41 42 44 38 28 27 27 29 28 25 24
71 71 72 77 65 62 62 60 61 62 62 62 60 54 63 33 32 32 59 70 57 66 70 49 43 40 53 47 47 48 50 61 42 40 38 42 53 35 30 33 33 29 26 25 24
73 74 70 65 64 62 64 63 63 63 60 60 61 61 57 40 39 32 35 64 57 71 72 70 61 47 58 65 72 56 62 59 46 39 40 44 49 33 28 29 33 31 27 24 22
74 72 70 67 65 64 63 64 63 65 61 47 45 62 46 42 39 35 43 70 71 86 83 94 78 63 64 75 89 70 57 48 49 43 44 48 49 34 30 34 32 31 26 26 25
71 73 72 67 67 62 68 69 77 71 57 55 53 49 45 50 43 54 65 84 74 86 95 87 85 80 64 53 49 39 44 42 34 40 45 46 43 36 32 34 38 34 30 26 24
73 72 72 69 66 64 65 57 63 66 71 43 40 42 45 55 72 71 67 89 86 96 72 89 89 55 48 40 39 38 40 40 35 40 45 42 42 35 31 33 34 33 30 27 26
77 73 71 70 68 68 61 65 58 58 94 75 66 66 70 80 81 83 78 83 90 88 80 79 62 46 41 41 40 44 43 38 47 48 44 44 47 40 34 30 30 33 32 28 27
76 77 74 73 77 60 68 62 63 64 100 95 84 83 75 91 94 86 87 86 86 72 66 82 58 52 47 44 35 48 36 37 51 58 62 41 41 38 36 36 32 35 31 28 29
74 78 78 73 76 64 62 59 59 72 96 89 86 66 80 91 90 96 86 70 86 78 86 96 79 71 60 50 37 44 46 49 55 62 72 52 62 44 37 35 33 36 39 39 38
72 79 78 66 73 56 60 61 73 100 98 98 88 78 84 71 75 77 80 74 81 78 82 92 82 87 84 54 40 46 54 55 60 62 93 61 49 48 40 32 35 37 38 39 39
74 75 78 57 70 58 64 76 99 95 97 94 93 87 70 75 79 77 93 96 98 99 100 95 97 85 77 72 56 50 67 92 96 97 91 50 55 45 30 29 33 34 38 39 40
80 80 76 54 57 65 77 95 90 84 100 69 75 68 76 74 81 87 96 99 90 85 100 98 99 96 86 80 71 63 62 88 78 92 79 51 68 42 29 28 29 35 38 42 47
83 71 67 65 62 68 90 93 92 100 75 57 52 81 84 66 65 89 89 94 87 82 98 98 99 94 86 79 64 78 89 54 77 52 83 61 43 37 32 31 36 35 36 45 48
77 66 66 60 64 78 93 88 87 74 62 50 61 53 64 56 58 62 66 69 69 58 53 65 98 94 92 81 76 68 52 81 95 84 69 50 44 45 40 36 32 35 34 44 49
82 69 72 65 75 86 98 92 61 53 52 55 50 47 53 58 52 48 54 52 44 45 43 53 71 98 94 98 91 84 88 75 69 78 90 59 45 36 35 32 33 34 37 43 50
85 95 73 73 93 77 92 70 73 53 52 47 50 50 50 50 53 51 55 52 42 43 52 55 69 95 92 59 51 67 68 65 88 82 74 76 57 28 33 36 38 38 42 43 56
78 69 74 77 91 69 63 56 55 52 52 46 48 49 46 49 54 52 54 50 49 50 54 52 81 95 83 70 59 68 56 56 59 79 86 86 59 35 36 38 37 41 44 52 57
77 93 79 76 63 65 63 55 60 66 52 46 46 45 50 50 45 56 57 58 50 49 60 56 62 83 89 83 73 80 63 59 72 93 68 62 51 41 39 38 45 50 57 60 60
67 85 72 97 72 67 64 62 57 62 57 49 51 47 45 52 49 53 56 58 55 62 56 58 92 84 59 59 75 74 66 62 79 70 77 50 40 38 37 43 48 55 60 61 60
82 91 75 71 62 63 72 63 62 58 59 51 55 46 45 48 45 52 52 54 57 57 59 62 95 90 86 61 68 80 65 57 61 61 59 53 48 37 37 46 51 62 63 61 62
61 65 85 68 62 63 70 67 63 66 63 56 60 59 53 66 57 50 45 42 49 57 61 67 94 94 89 65 71 86 70 63 59 56 56 64 45 43 45 46 54 65 63 65 64
Wind_Speed
22 20 19 20 18 17 15 15 13 14 12 14 14 6 5 10 7 9 10 7 18 9 4 10 8 9 7 6 9 5 6 11 14 15 12 5 6 5 1 7 2 3 10 10 9
24 23 20 19 17 16 13 11 11 12 12 10 9 9 3 4 11 17 9 12 16 18 7 14 13 10 6 9 6 10 9 16 18 21 16 9 6 9 5 6 4 7 9 12 8
23 22 22 18 15 13 12 11 11 9 8 5 5 4 1 7 12 14 23 16 17 15 12 14 13 13 11 6 11 8 15 16 21 20 16 9 5 2 7 6 8 8 10 8 9
27 26 22 14 13 12 10 10 10 8 8 3 4 5 3 9 5 15 27 23 20 14 12 7 16 14 9 13 14 8 17 15 14 5 5 5 3 6 6 4 2 6 10 9 8
25 24 23 16 11 11 10 9 8 6 6 2 2 4 5 7 10 3 7 20 14 17 17 11 17 14 12 15 11 18 11 16 17 6 3 7 6 5 4 1 7 9 7 1 5
27 25 22 14 6 6 7 4 10 4 3 2 1 5 6 8 11 9 10 4 9 16 17 15 12 13 8 6 14 8 15 9 6 4 2 4 6 3 4 4 5 4 4 6 5
28 25 17 8 2 5 3 4 8 4 5 2 1 5 8 12 3 9 4 2 4 11 15 15 12 13 3 5 8 4 7 6 5 6 2 1 8 11 7 4 6 6 7 7 7
26 21 16 7 3 3 5 3 3 3 4 3 2 7 7 9 11 14 5 2 3 5 12 13 11 13 4 3 3 9 3 7 8 9 4 8 5 13 9 7 8 7 8 8 10
22 20 16 11 7 5 5 3 3 4 2 3 3 6 8 2 15 11 8 5 9 2 7 11 3 11 8 6 5 7 9 12 9 13 6 10 4 15 7 8 8 9 10 7 7
17 17 16 12 8 6 5 3 3 4 4 5 5 3 8 7 7 12 7 7 3 12 6 11 7 9 7 8 11 16 14 13 13 13 13 10 9 8 4 2 6 6 7 6 5
16 17 16 11 9 7 5 3 2 3 5 1 3 9 9 11 6 7 11 5 3 12 11 10 7 19 26 21 8 10 13 12 14 8 11 14 12 11 8 6 6 7 7 7 6
17 15 15 12 11 13 8 3 5 3 4 3 7 6 5 2 5 8 7 1 8 11 14 8 13 14 15 13 15 4 7 15 2 7 4 6 9 9 9 7 8 8 8 7 5
18 15 15 16 13 9 7 5 3 3 3 3 3 6 4 3 3 7 6 3 10 17 14 10 11 19 17 15 17 6 6 9 4 5 2 4 6 9 7 8 7 0 2 5 5
19 18 15 17 6 3 2 4 3 4 2 5 2 1 2 8 6 6 6 5 3 17 13 6 1 9 11 14 13 9 7 5 9 5 3 9 5 12 14 5 4 2 4 7 5
19 20 15 9 8 3 2 4 4 2 2 9 3 4 4 3 13 3 3 5 6 5 4 3 5 7 12 10 7 3 11 7 6 4 3 6 2 2 11 7 6 6 6 6 6
22 18 11 6 5 1 3 4 3 3 8 5 4 0 2 9 5 7 6 8 5 6 11 3 1 6 5 3 5 3 10 8 3 3 1 7 6 4 8 10 9 7 7 7 6
24 14 5 3 3 2 4 4 2 6 1 6 3 3 7 6 6 4 5 3 4 8 3 3 5 3 4 5 10 9 8 3 1 1 5 3 4 6 1 12 11 8 9 7 6
24 10 6 5 3 2 2 2 7 4 2 2 1 10 5 2 4 6 4 3 6 5 4 4 3 0 4 3 4 7 8 4 6 5 5 2 6 3 8 8 10 9 7 6 5
22 4 2 3 4 2 3 5 2 2 5 4 2 4 3 2 2 6 3 3 5 1 4 5 3 3 2 2 3 3 2 3 3 2 5 6 3 1 5 6 7 8 7 7 6
5 3 1 4 4 2 1 4 1 4 5 4 3 1 2 4 3 7 7 5 7 2 3 5 7 4 2 2 4 2 1 2 1 3 4 5 6 5 10 9 8 7 7 6 7
3 2 3 4 3 4 3 3 3 3 5 6 5 2 4 1 6 4 6 3 4 6 7 5 5 5 5 5 7 2 1 3 1 2 2 2 3 5 12 8 10 9 6 4 5
4 1 4 6 2 1 2 3 2 1 3 1 3 5 3 3 1 4 7 6 4 4 3 3 5 3 2 5 3 6 5 2 2 4 1 3 3 8 9 8 6 5 1 4 8
5 3 4 4 2 3 2 3 2 2 1 2 1 3 4 0 1 4 6 1 3 4 2 5 3 4 2 4 4 5 6 8 3 3 3 3 3 7 9 7 7 7 5 7 7
3 3 1 4 2 5 4 5 4 1 2 2 1 2 2 2 3 3 5 2 2 4 4 3 3 3 4 2 5 5 8 8 5 3 3 4 5 4 7 7 6 5 7 6 7
3 2 2 4 4 6 3 3 1 2 3 2 4 5 4 3 3 3 6 5 3 3 1 2 3 3 1 4 4 2 5 11 8 6 5 2 7 12 9 7 7 7 7 5 6
4 3 4 5 4 5 4 3 5 4 4 3 3 1 2 3 4 4 5 4 3 5 3 2 3 3 2 3 2 5 7 7 12 12 11 10 6 1 5 7 6 7 6 5 5
4 3 2 5 3 3 4 6 4 7 3 3 7 5 2 6 8 7 4 2 4 5 5 5 4 2 1 3 3 7 14 16 10 7 13 12 7 2 6 7 4 6 6 6 6
Wind_Direction
323 318 319 313 310 310 307 306 299 287 287 287 260 242 282 278 273 256 230 223 223 130 169 179 204 215 246 230 197 134 185 238 255 264 264 271 146 124 29 277 58 89 74 100 100
322 324 323 313 316 310 298 301 300 303 300 296 244 210 240 292 265 251 225 211 226 209 204 192 188 188 188 208 214 206 209 209 239 262 267 249 139 161 129 250 249 101 102 110 125
325 320 315 315 315 305 292 297 302 313 308 297 243 207 174 276 272 254 219 209 216 198 215 187 185 190 196 190 221 220 214 208 207 245 334 272 140 205 161 223 226 178 142 134 127
324 321 312 310 306 301 285 303 303 312 309 360 249 225 246 267 252 350 184 194 197 194 201 210 190 188 191 203 207 216 224 254 256 87 196 297 290 210 212 222 281 122 102 132 157
332 328 322 301 297 288 295 310 310 313 303 341 88 219 218 222 254 342 161 183 185 201 204 198 195 190 202 196 203 224 251 208 247 82 339 301 283 269 203 93 61 88 82 315 176
341 334 328 316 289 300 295 309 316 289 278 313 204 215 240 261 266 142 104 160 182 200 201 202 201 201 217 205 204 220 237 287 186 130 273 310 271 251 275 152 146 139 169 228 237
342 344 344 343 268 333 295 294 294 290 305 322 301 248 259 240 12 64 86 169 132 214 199 213 207 204 185 224 218 137 196 228 218 151 180 176 278 252 226 243 241 211 212 240 252
356 353 6 89 27 342 319 284 271 297 299 324 305 249 261 253 257 262 115 205 235 249 236 216 246 216 237 137 195 208 223 180 201 181 193 160 244 223 229 236 254 243 227 218 206
14 36 36 39 27 12 350 304 266 269 226 229 222 234 255 227 225 243 219 205 182 241 234 274 241 219 191 206 185 180 200 215 204 193 195 188 207 253 170 203 232 231 243 240 242
18 23 17 11 24 9 345 312 160 169 210 205 242 224 255 270 204 223 150 217 166 159 214 231 195 176 183 161 191 188 215 196 215 180 207 185 236 276 158 295 197 275 290 280 265
8 5 9 8 356 341 279 224 190 135 217 194 225 245 261 336 170 174 173 163 144 179 188 166 176 188 192 195 180 194 194 235 200 165 188 220 231 230 234 193 221 241 254 258 251
3 353 350 352 336 315 286 57 49 356 295 259 283 278 281 286 193 152 132 127 210 174 153 155 204 192 187 203 223 219 225 216 89 137 182 212 235 243 235 202 212 236 248 258 271
349 347 340 341 314 306 53 45 9 35 290 29 337 300 309 26 217 135 121 178 223 179 148 173 180 186 200 199 216 206 250 177 118 108 311 334 279 233 222 233 232 139 318 322 311
341 334 333 329 283 302 84 359 3 316 280 14 77 49 255 224 103 133 153 225 126 171 149 190 167 211 197 207 191 189 206 169 112 128 242 167 270 208 199 182 183 186 243 233 136
338 327 322 327 305 291 14 293 298 233 66 344 302 313 251 93 146 56 338 28 56 113 100 84 247 192 190 198 187 241 104 98 129 219 9 208 238 217 126 182 175 157 99 96 102
335 325 312 293 236 49 290 294 263 238 41 353 300 320 335 92 86 97 87 64 18 75 49 46 16 23 352 308 144 127 101 103 178 164 251 224 197 212 178 184 155 145 167 156 158
332 324 269 317 336 10 312 268 300 43 222 353 354 206 58 54 76 78 73 78 146 131 143 58 16 4 349 86 130 165 149 134 186 187 221 0 165 266 285 145 145 164 153 158 156
328 319 216 235 344 2 288 268 40 311 56 191 151 59 56 18 56 94 145 113 195 97 109 124 149 317 337 165 226 185 192 152 197 185 169 64 229 272 112 101 142 116 117 136 121
319 179 222 186 179 196 252 50 89 277 300 9 113 62 1 129 135 160 77 59 100 122 146 128 91 141 252 354 282 184 248 26 328 234 93 194 206 359 103 120 127 152 170 165 154
313 271 171 110 150 231 252 99 164 182 288 322 339 360 114 96 216 189 124 146 128 188 231 149 115 116 67 305 350 268 92 144 291 167 218 202 174 217 180 182 185 188 202 185 158
263 254 130 142 146 245 78 37 123 210 314 336 7 70 62 261 302 44 53 101 103 161 238 195 103 127 136 208 175 101 218 243 221 150 193 152 257 171 165 164 172 194 184 153 137
303 290 167 176 256 182 100 158 242 16 173 274 305 334 191 179 319 75 86 57 57 187 79 2 96 134 165 159 149 221 207 277 142 238 237 168 285 130 137 149 140 108 122 187 113
306 298 169 226 353 104 159 151 273 232 346 322 88 320 320 320 92 90 89 60 342 32 85 167 125 105 156 165 179 214 204 183 103 8 211 124 229 127 111 126 180 191 191 115 117
310 344 32 216 232 308 184 171 184 53 288 299 41 275 225 161 307 130 118 132 78 68 348 334 157 131 160 162 131 188 201 195 145 141 198 217 142 180 152 203 142 97 90 86 107
5 57 7 317 46 343 346 354 278 144 216 252 205 275 243 155 155 158 102 145 171 158 191 335 118 89 19 84 64 247 208 193 193 214 165 276 208 187 186 181 129 124 107 102 88
10 357 335 287 302 267 144 90 16 36 347 114 288 94 283 327 20 151 159 185 176 151 187 96 144 90 302 169 238 243 255 235 205 218 256 277 290 331 116 100 101 124 124 117 112
353 323 295 282 306 275 32 29 30 353 108 36 338 11 308 23 352 342 45 108 111 157 191 140 113 118 192 120 259 286 223 215 207 190 204 219 213 104 136 142 138 138 139 133 128